Location: Holmbach
(49.5093°N, 8.8411°E)
Time: 15:35:55
(UTC+00:00)

Cosmos 1140 Rocket - Pass Details

Date: 17 June 2025
Orbit: 740 x 762 km, 74.1° (Epoch: 20 July)

Event Time Altitude Azimuth Distance (km) Brightness Sun altitude
Exits shadow 22:00:23 - 216° (SW) 2,745 6.0 -14.7°
Reaches altitude 10° 22:01:39 10° 218° (SW) 2,259 5.6 -14.7°
Maximum altitude 22:06:41 58° 297° (WNW) 871 4.0 -15.0°
Drops below altitude 10° 22:11:44 10° 17° (NNE) 2,265 6.8 -15.2°
Sets 22:14:09 0° 22° (NNE) 3,191 7.6 -15.4°
